Theta_e
291 291 291 291 291 292 292 292 296 298 296 298 301 301 302 302 302 302 302 301 301 302 300 300 301 302 304 305 307 306 307 308 306 309 307 306 311 315 315 314 315 318 318 314 313 318 324 315 315 318 315 313 314 314
291 291 291 291 291 291 292 293 298 297 294 298 301 301 302 302 302 303 303 301 301 301 302 301 301 301 301 302 303 305 307 306 308 307 309 308 314 313 314 315 312 316 315 317 318 322 317 314 315 314 311 312 313 313
291 291 291 291 292 291 291 292 297 299 294 297 300 302 302 302 302 303 303 301 300 301 300 300 302 303 302 303 303 305 305 305 307 307 308 308 311 313 313 316 314 313 312 316 316 319 315 315 315 313 311 312 312 312
290 291 291 292 291 292 291 291 293 299 293 295 300 302 303 303 303 302 302 301 300 301 304 303 302 303 305 304 303 302 304 305 306 307 309 309 312 311 312 310 312 311 312 314 314 315 314 315 313 312 311 312 311 312
292 290 291 292 291 291 292 291 294 298 292 294 299 302 303 305 302 302 301 301 301 301 305 304 303 304 306 306 306 305 304 304 306 308 309 309 308 311 312 310 312 311 312 315 316 313 314 313 312 312 312 312 311 312
300 295 291 292 293 292 292 292 296 294 292 293 298 303 306 304 302 301 297 303 301 301 304 305 302 303 304 305 307 307 305 305 306 309 309 307 304 310 312 313 308 310 311 310 313 312 312 312 313 312 310 311 311 312
303 303 297 291 292 294 292 292 295 294 292 293 300 304 306 306 303 300 300 303 305 302 303 306 304 304 305 307 308 309 307 306 307 309 308 304 304 306 306 308 308 308 308 311 312 312 313 313 313 312 311 311 311 313
305 304 304 295 292 293 294 293 294 295 292 294 303 305 307 305 304 304 305 304 303 303 304 305 305 307 305 308 309 306 308 306 306 306 302 303 302 303 306 308 308 308 307 309 309 308 309 310 312 313 311 311 311 313
305 305 305 302 298 293 296 293 295 293 292 298 304 306 305 304 302 305 305 304 303 302 305 305 306 308 305 308 307 305 305 310 305 307 310 308 305 307 309 309 309 309 308 307 307 307 307 309 311 312 311 311 312 312
305 305 305 304 302 296 297 295 295 294 293 299 305 304 302 305 305 305 303 302 303 304 305 307 305 306 305 309 309 304 303 307 311 309 308 309 308 308 308 308 308 308 308 308 307 308 308 311 312 312 312 312 311 312
304 304 304 304 305 301 299 296 295 295 294 298 299 300 302 306 305 300 303 304 303 305 305 305 304 305 307 309 307 304 304 304 308 310 310 311 311 308 309 309 308 308 309 308 308 307 306 307 308 309 310 310 310 311
303 303 304 304 305 304 298 296 295 295 295 297 297 299 302 301 301 304 299 301 305 306 304 305 305 304 307 303 302 303 305 304 307 306 310 313 311 310 310 311 309 310 310 311 310 308 307 308 309 309 310 311 310 311
300 300 303 303 304 303 297 297 296 295 297 302 302 305 301 300 299 307 307 306 305 304 303 302 303 303 303 299 302 299 300 306 304 306 310 312 309 309 309 310 312 311 310 310 311 309 308 310 310 310 311 312 310 311
300 300 299 303 303 298 296 299 298 296 299 303 306 305 303 303 301 300 301 303 302 301 302 301 302 303 300 302 305 303 304 300 297 301 309 309 308 308 308 310 311 311 311 310 309 309 310 311 313 314 314 313 311 311
299 299 299 302 298 298 301 301 300 299 299 305 302 304 304 303 302 302 301 302 302 301 300 302 301 302 299 304 304 302 303 296 303 306 309 307 306 306 307 309 310 310 310 310 310 308 308 309 312 313 310 310 310 311
298 298 300 297 298 300 301 300 300 303 304 306 305 305 303 304 304 303 302 301 299 299 300 300 302 303 303 305 299 305 308 303 308 305 304 305 305 305 307 308 308 309 310 311 310 308 307 309 311 313 314 315 312 311
298 298 299 299 298 300 300 298 301 306 307 308 303 302 301 302 303 302 301 302 298 301 303 302 306 305 299 296 300 305 309 303 303 305 305 304 303 304 304 307 307 309 310 309 310 312 311 311 310 311 313 313 313 313
297 298 298 298 297 295 295 299 302 306 309 306 303 302 300 301 301 301 300 299 301 301 302 305 301 303 297 297 295 297 300 301 301 304 303 302 302 303 303 306 306 306 309 310 309 310 312 312 312 311 311 312 314 315
298 298 298 299 296 295 295 299 303 305 305 302 301 300 300 300 299 300 299 299 300 300 302 303 305 303 302 301 302 301 301 301 302 302 301 302 303 302 302 303 304 304 306 309 310 310 310 310 311 312 311 312 314 315
297 297 298 297 294 296 300 300 304 303 303 302 300 300 300 300 299 299 299 299 300 301 303 305 304 302 302 302 301 302 302 301 300 302 302 302 303 303 302 301 301 303 304 308 310 309 309 308 308 309 310 309 310 311
296 296 296 295 295 295 299 299 302 301 301 303 302 301 302 299 300 300 300 299 301 300 302 301 301 301 300 301 302 302 301 300 300 301 303 302 301 301 301 302 302 303 302 304 306 307 309 309 309 309 309 309 309 309
295 296 296 295 296 298 297 297 297 300 301 301 300 301 301 297 300 300 299 302 301 301 300 300 301 301 300 302 302 303 304 303 302 301 301 302 302 301 300 300 299 300 300 301 303 305 307 307 307 308 307 308 308 309
295 294 294 294 298 301 301 301 304 302 301 300 298 301 300 298 299 299 301 300 301 300 300 299 300 301 302 303 305 304 304 303 301 301 301 301 302 302 301 300 300 300 300 302 304 305 306 307 307 308 308 307 307 308
293 294 297 297 297 298 299 301 299 297 297 300 299 303 302 300 298 299 301 300 301 300 300 301 299 301 301 301 301 300 301 302 302 302 302 301 300 301 303 302 301 302 302 304 305 306 306 307 307 307 306 306 307 307
297 296 296 295 296 300 302 302 301 297 304 302 303 302 299 298 299 301 302 300 299 299 299 300 299 299 303 302 301 302 303 303 301 301 301 302 302 302 301 301 301 301 302 304 304 305 305 305 305 305 304 303 304 303
296 292 294 296 297 299 301 303 301 301 301 301 300 300 294 298 302 303 301 300 298 297 298 300 300 298 299 300 301 300 302 303 302 299 301 302 302 300 298 298 298 300 302 303 304 304 303 303 302 301 301 302 301 301
292 290 292 294 295 297 297 298 297 298 302 302 298 299 299 303 302 300 297 297 298 298 301 301 300 299 299 298 301 302 302 302 302 302 301 300 299 299 299 297 297 299 301 304 304 303 302 301 300 299 298 297 297 298
294 293 295 294 295 293 298 297 299 300 300 299 300 302 303 302 300 299 298 299 298 298 299 299 300 301 301 301 300 300 301 302 302 301 300 298 298 299 299 299 301 302 303 303 302 302 301 299 298 297 295 294 293 293
295 292 293 295 295 293 295 297 297 296 298 301 301 302 303 300 299 299 300 300 300 297 296 297 297 297 297 298 299 301 301 300 298 298 298 295 293 295 296 298 299 300 301 300 300 299 299 298 296 295 294 293 293 293
292 292 294 294 296 296 295 295 296 297 298 299 298 299 300 300 301 301 300 300 298 296 296 298 298 298 295 295 293 294 295 296 297 296 295 293 294 296 296 296 298 299 300 299 299 298 297 295 294 293 292 291 290 291
292 294 295 294 296 295 295 296 296 294 295 295 295 296 296 296 298 299 298 298 299 298 298 298 298 297 297 295 294 294 293 294 296 296 296 296 296 295 296 296 297 298 298 298 297 295 293 291 290 288 288 287 287 288
292 294 295 296 294 293 295 294 294 295 296 295 295 295 296 298 300 296 294 296 297 297 298 298 296 294 296 296 294 294 294 291 292 293 293 294 293 294 294 295 296 297 296 295 294 292 290 288 287 286 285 284 284 284
291 293 294 295 294 296 296 295 295 296 295 294 297 297 298 298 299 295 294 294 294 295 295 294 294 293 292 292 291 290 290 289 289 289 291 292 292 293 294 294 295 294 293 291 290 289 288 287 285 285 284 283 283 283
Wind_Speed
29 31 33 34 36 37 37 36 28 27 33 29 26 21 17 14 10 8 6 8 6 3 8 7 5 5 4 4 3 3 6 0 2 2 1 3 2 2 3 2 1 3 4 3 3 3 5 13 6 7 7 8 10 12
30 31 32 34 36 37 38 38 28 30 36 33 26 22 18 13 10 8 6 7 8 4 6 19 28 31 23 23 7 2 3 4 2 2 2 2 2 1 3 3 3 2 2 2 2 3 4 8 5 6 4 10 9 14
30 31 32 34 35 37 39 40 33 32 39 36 29 23 18 14 11 10 12 10 5 3 5 3 5 5 9 18 20 3 2 3 2 2 2 2 3 2 2 0 1 0 4 3 2 2 12 15 8 6 11 14 16 14
30 31 31 34 36 37 39 41 38 33 42 38 33 25 20 14 11 10 11 9 7 3 3 6 6 5 6 7 8 22 9 3 2 1 1 2 2 2 3 2 2 2 2 0 5 6 13 2 12 14 19 19 19 19
31 31 32 33 36 38 39 42 39 34 44 39 34 26 19 13 9 9 14 16 16 1 3 5 20 2 4 2 7 8 12 5 1 2 2 3 2 1 1 1 2 3 2 1 2 6 6 10 13 18 17 18 20 17
31 32 33 33 35 37 39 42 37 40 44 41 34 18 15 9 5 4 3 7 19 12 2 4 5 5 6 13 12 8 5 3 2 2 3 3 3 2 1 1 6 6 5 5 3 6 9 15 15 11 15 17 20 19
30 33 33 34 36 37 39 41 37 43 47 42 31 19 13 9 8 3 3 3 5 15 2 4 4 3 7 7 3 2 2 1 2 1 3 2 2 3 2 0 8 10 10 7 10 9 8 4 12 19 19 18 17 16
29 31 33 34 35 37 38 39 38 42 49 43 24 16 7 5 5 3 4 2 12 3 1 2 4 4 5 3 2 3 1 1 1 2 3 2 4 2 2 2 7 8 12 10 4 6 8 11 13 19 16 15 14 13
30 32 33 34 35 35 38 40 36 43 48 32 20 4 0 2 1 1 6 1 12 2 1 2 3 4 4 2 2 3 2 1 1 2 2 3 3 1 3 8 11 10 6 10 14 13 14 15 11 20 14 16 12 12
32 33 33 33 34 35 37 35 34 45 42 22 6 3 2 2 10 6 3 1 0 1 1 3 2 3 1 2 2 3 2 2 2 1 3 1 1 4 3 10 11 12 13 13 11 11 9 8 9 15 15 13 14 10
31 32 33 32 32 35 35 28 36 43 20 12 7 3 11 10 3 1 1 1 1 2 3 3 4 3 1 1 2 1 1 2 2 2 3 2 3 4 10 11 13 12 12 13 16 14 12 14 13 13 18 15 14 13
31 31 32 32 30 32 30 25 34 29 17 14 17 14 7 3 2 0 1 2 1 3 3 2 3 3 0 2 1 1 1 1 2 4 1 2 4 15 15 15 12 11 11 12 15 15 13 13 14 14 15 15 15 15
30 31 33 33 30 29 20 30 36 34 25 3 3 3 1 1 4 3 1 3 2 2 3 3 4 1 2 2 1 2 3 2 3 2 3 2 10 14 16 14 12 11 9 10 8 11 12 15 19 15 16 17 20 12
28 29 31 32 31 16 24 35 37 30 5 2 2 5 3 3 4 4 4 4 5 4 4 1 1 1 1 3 1 2 2 2 4 4 2 4 9 13 13 12 14 15 13 9 9 9 11 11 13 19 18 20 14 8
24 28 31 26 11 21 32 36 35 14 5 3 2 4 5 4 3 3 3 2 4 2 0 1 1 2 2 2 2 2 4 2 2 3 3 6 13 12 13 12 12 14 17 12 8 6 10 9 9 9 15 17 17 18
21 27 13 9 25 35 33 36 12 4 3 3 4 3 2 1 3 2 3 4 2 2 1 2 1 2 1 1 3 1 2 2 3 3 5 8 12 11 12 13 11 12 17 17 9 3 6 9 7 7 14 19 18 17
17 9 11 27 31 31 30 5 2 4 4 4 4 3 3 2 4 3 4 4 2 2 1 2 1 4 1 3 2 3 3 3 4 6 7 8 8 11 11 12 11 12 12 15 13 10 9 13 15 8 7 10 15 16
15 25 27 27 25 22 7 3 3 3 6 5 3 4 3 3 3 3 3 3 3 3 4 3 4 2 4 4 4 4 5 4 5 7 6 8 8 8 8 10 10 13 12 17 21 17 14 12 9 7 13 16 17 13
23 25 25 21 13 7 3 4 3 3 5 3 3 2 2 3 3 3 2 3 3 2 4 2 3 3 3 4 4 4 4 3 3 3 4 6 7 7 10 14 13 11 13 13 15 10 14 16 13 14 13 14 8 10
20 22 21 6 4 3 3 4 3 3 4 3 2 2 3 4 3 3 3 3 4 3 3 4 5 4 4 4 5 4 4 2 1 3 4 4 6 10 8 8 8 14 12 12 13 13 12 15 20 21 18 13 7 6
16 8 7 3 6 11 3 3 3 4 4 2 2 2 3 1 2 3 3 4 2 3 4 4 4 5 5 2 5 5 4 3 4 4 3 3 4 8 8 14 16 12 5 5 6 7 13 8 13 22 25 16 16 14
6 8 4 5 5 5 4 8 4 3 2 3 3 3 3 2 3 4 2 2 4 4 4 4 4 4 4 5 5 10 9 8 7 5 4 5 3 3 4 8 8 5 5 7 8 5 9 12 16 15 21 24 26 17
8 4 5 4 4 4 6 7 4 3 4 3 3 2 3 2 3 1 3 3 4 4 5 4 3 5 5 8 7 6 8 6 4 3 2 2 3 2 5 8 11 6 5 11 12 9 10 14 16 16 17 19 21 18
6 3 3 4 7 5 3 3 3 2 2 1 2 4 3 3 0 1 4 3 3 1 4 5 4 3 2 4 4 4 8 6 3 2 2 5 3 4 6 8 9 14 14 9 10 10 11 14 16 15 14 13 14 14
4 6 4 7 4 3 4 3 3 1 5 5 3 4 4 1 1 3 3 3 2 3 4 3 4 3 3 3 2 4 10 10 4 2 2 1 1 1 5 5 7 11 17 16 13 10 12 12 14 14 17 15 13 14
6 6 9 6 3 4 4 3 5 5 3 3 5 3 2 1 2 5 3 3 3 3 4 5 6 5 4 4 4 4 8 9 10 4 1 2 2 2 1 2 3 6 16 14 10 9 11 13 14 14 14 15 19 17
5 5 4 3 2 2 3 3 2 1 3 4 3 1 0 3 4 3 4 4 4 4 7 10 14 5 5 4 5 8 12 16 11 5 12 9 9 10 9 6 4 12 12 10 10 11 13 12 13 15 14 15 16 16
6 3 6 4 3 3 3 2 3 4 4 3 1 4 3 4 3 2 2 12 21 15 5 6 5 7 9 12 12 16 14 17 19 16 13 10 7 6 6 9 9 10 11 13 12 13 14 14 14 13 14 13 13 15
5 3 4 4 4 4 5 6 5 4 3 4 4 4 3 1 3 1 5 17 29 18 1 8 10 9 11 13 14 15 23 24 12 6 5 3 1 5 8 6 6 7 10 13 15 15 13 13 14 14 14 15 16 17
6 5 4 5 5 7 6 6 3 3 2 3 2 1 2 2 5 8 7 12 9 11 10 9 16 15 7 4 8 12 7 2 2 4 4 4 4 5 6 9 9 5 4 6 7 7 8 9 9 11 13 15 14 13
4 6 3 5 8 6 6 6 4 2 2 3 4 4 4 2 2 1 3 9 15 10 4 5 10 13 17 13 7 5 4 6 8 9 9 9 6 3 2 3 2 4 3 3 6 9 10 12 13 13 14 14 13 11
5 7 5 4 3 4 3 3 4 4 4 4 4 4 3 3 3 2 15 10 3 2 3 5 9 6 13 14 8 9 9 9 7 6 5 4 2 3 3 2 3 6 8 10 11 13 13 14 14 14 13 13 13 14
3 4 4 3 3 3 4 5 4 3 2 3 3 3 2 3 3 3 10 16 9 6 6 11 17 17 18 16 14 12 11 11 10 9 8 6 6 6 6 7 9 11 13 16 15 13 13 14 15 14 13 12 11 11
Wind_Direction
337 341 345 347 348 348 347 344 346 349 349 341 332 333 329 321 303 280 263 255 241 251 276 229 249 224 246 237 275 334 318 50 296 261 222 261 279 293 332 37 149 118 168 181 198 236 273 0 12 54 275 298 308 310
335 337 341 344 346 347 347 347 343 347 352 347 334 333 325 317 302 276 248 254 253 240 267 291 275 264 247 247 262 235 272 288 276 313 339 281 289 3 287 207 244 154 193 127 251 287 328 325 302 272 276 305 308 309
332 335 338 340 342 345 346 347 340 340 349 349 341 333 326 315 294 265 253 265 248 266 286 296 257 306 280 246 233 216 203 252 248 215 342 288 288 262 273 177 113 72 178 211 268 23 325 307 313 306 324 323 314 311
329 332 336 337 340 343 345 344 342 336 345 348 340 332 324 309 291 258 245 252 221 268 283 271 287 336 9 4 215 213 234 342 328 239 255 266 283 309 336 335 339 288 282 217 275 311 321 198 338 330 322 321 325 326
326 329 333 336 337 340 344 344 341 340 343 346 342 330 321 301 285 256 249 238 224 236 287 301 314 214 319 290 284 235 226 239 260 271 243 246 250 269 261 207 251 204 199 249 266 260 277 284 307 321 321 319 324 323
327 328 329 333 336 338 341 345 341 341 343 344 343 330 316 292 263 276 327 236 225 209 281 305 309 292 290 262 243 180 195 182 207 232 265 267 254 204 323 267 9 2 316 210 236 252 268 285 297 316 326 317 317 320
324 329 328 329 333 338 339 343 340 338 341 343 339 329 307 255 222 190 211 331 195 187 278 299 298 284 326 317 360 79 111 139 236 231 241 235 280 176 216 11 348 335 313 305 273 294 302 319 308 318 324 321 314 313
320 327 329 327 330 335 338 340 340 335 338 340 336 331 332 200 247 290 26 254 173 180 59 292 279 304 5 308 350 2 47 141 192 289 339 327 321 38 34 329 341 331 329 319 322 311 279 295 308 304 308 317 313 323
316 322 327 327 328 333 337 338 340 338 339 338 336 317 127 130 128 100 334 134 195 255 194 257 289 301 357 277 15 339 11 351 10 285 354 336 3 2 320 335 324 323 281 276 297 301 300 287 285 285 297 314 307 319
312 317 323 325 327 331 338 341 346 342 343 338 335 314 338 77 314 140 173 84 227 262 157 249 236 268 267 294 33 358 13 19 333 252 282 259 254 236 267 306 301 293 286 275 261 277 284 267 272 280 298 303 306 305
308 314 319 323 326 330 339 340 345 345 347 353 359 322 312 331 157 64 219 129 306 265 221 239 228 267 199 342 333 32 337 317 320 359 328 336 333 271 293 292 297 290 273 269 258 252 252 262 273 287 289 292 299 304
304 310 315 323 328 330 336 337 343 339 323 295 286 298 289 317 28 144 308 323 216 255 271 223 267 216 3 46 97 340 32 355 310 334 300 357 291 310 323 327 302 313 319 284 266 250 251 260 259 259 266 277 288 301
304 307 310 316 326 326 331 334 334 329 326 282 220 249 23 290 31 140 231 301 307 265 256 343 319 351 360 55 91 50 41 321 324 355 343 251 305 318 325 326 327 321 299 310 294 253 250 249 255 253 259 265 274 286
302 305 311 311 319 311 325 328 331 330 294 233 237 290 175 260 245 186 188 206 236 227 285 311 260 73 317 47 306 8 345 47 20 27 298 275 303 313 320 322 320 318 327 291 297 296 289 290 279 267 249 254 263 268
304 307 311 316 305 313 322 327 326 310 199 221 143 247 227 233 243 212 218 285 240 242 104 353 49 89 2 71 5 14 15 351 194 246 252 291 308 309 312 322 331 336 335 318 284 274 281 279 285 300 272 251 240 244
305 309 311 308 317 321 326 322 319 173 245 226 226 269 245 330 277 216 197 252 210 148 95 62 70 59 59 26 48 94 312 257 276 241 257 299 304 312 322 326 335 337 358 354 359 329 283 288 284 275 291 292 250 225
299 262 301 318 325 325 324 293 240 224 222 229 250 216 185 242 224 242 188 243 149 95 228 112 19 221 87 41 330 200 212 224 238 278 296 295 293 307 317 328 337 343 358 11 4 355 350 336 322 313 305 330 291 227
268 295 308 317 332 331 302 246 249 252 246 238 220 228 198 211 210 247 239 197 150 174 138 209 124 137 174 178 256 237 232 255 258 266 282 292 309 327 335 338 338 344 349 6 8 3 10 10 7 351 333 329 319 301
289 292 302 315 326 307 312 283 218 258 243 243 249 231 202 236 234 252 220 186 192 152 121 125 140 191 226 218 223 241 249 213 257 294 288 292 312 338 334 343 346 347 345 348 7 1 359 10 13 6 350 330 307 300
291 290 300 303 205 223 268 264 239 261 269 249 266 238 204 213 227 211 228 179 159 162 152 191 208 211 195 217 197 218 227 205 190 315 303 311 334 352 347 339 334 337 343 346 348 1 8 15 13 5 347 332 329 331
297 303 304 241 198 217 275 271 258 226 278 274 281 186 253 318 235 216 226 155 146 201 215 210 219 228 205 209 195 191 230 194 215 199 243 299 321 332 340 356 355 359 350 349 347 351 6 355 355 7 346 344 355 355
253 282 293 233 229 220 248 234 226 278 270 255 304 211 235 250 237 228 168 165 211 218 198 188 217 203 193 198 200 206 220 233 242 241 274 260 297 341 343 340 346 345 351 343 350 346 352 358 21 16 10 355 4 1
276 258 232 241 237 232 255 176 209 221 235 260 5 272 256 254 230 109 237 221 233 217 202 200 217 211 200 173 167 190 204 214 230 227 237 226 249 308 339 356 19 17 350 345 353 6 6 9 7 14 26 18 12 14
212 238 233 221 199 256 271 237 219 252 252 254 214 260 243 230 89 216 248 241 239 182 180 202 160 125 80 124 175 188 188 199 227 272 5 21 8 339 333 339 359 25 14 358 9 6 2 7 12 15 10 18 21 29
220 227 204 237 229 234 232 241 223 194 243 200 212 264 265 97 180 249 235 258 239 227 223 193 183 178 168 170 139 185 189 179 177 168 3 1 321 356 12 10 13 24 15 10 6 5 5 20 32 32 31 24 23 28
216 227 191 204 212 207 218 237 214 220 207 213 230 249 36 111 268 252 245 240 234 229 201 193 191 182 194 184 159 188 193 184 173 129 160 127 148 156 216 6 341 335 6 8 5 42 36 26 34 45 40 31 35 33
226 255 230 243 224 255 280 253 268 232 238 217 238 298 127 227 248 274 330 18 317 319 295 238 188 172 156 158 158 173 169 175 180 159 130 109 85 66 54 30 341 335 0 34 49 64 68 57 48 49 50 49 40 39
223 221 202 202 202 205 245 258 231 224 231 225 126 198 225 210 245 278 339 342 341 327 72 90 147 157 161 180 181 162 144 140 132 127 122 107 92 81 68 56 54 45 53 61 63 63 67 73 74 69 66 60 46 48
215 206 177 211 212 224 215 209 219 223 205 164 181 216 243 185 197 210 306 344 336 316 329 90 80 112 118 132 147 154 151 148 139 156 175 183 280 40 55 66 68 66 67 67 61 52 55 66 74 77 76 77 76 70
226 170 188 204 202 220 221 191 228 227 228 193 185 347 307 267 242 260 288 299 323 303 288 166 149 142 123 109 104 85 83 121 221 163 162 184 178 118 77 57 54 69 64 84 77 59 36 47 67 73 80 79 72 72
142 170 219 216 242 235 232 235 241 213 208 218 211 202 228 220 6 17 6 331 314 310 225 149 128 143 135 140 143 126 104 84 96 102 113 125 129 111 38 11 43 96 101 78 71 72 71 69 64 58 53 53 56 65
181 192 199 216 258 245 198 208 215 215 219 204 228 192 175 131 170 46 8 360 335 249 326 150 130 116 131 128 129 108 116 124 108 115 114 112 119 102 80 68 124 136 127 110 95 87 85 85 81 77 70 62 59 57
194 186 196 256 294 248 216 168 212 238 196 205 211 147 116 117 98 36 11 32 32 51 82 116 119 114 112 108 105 107 108 106 93 82 80 85 95 104 110 123 136 130 119 109 103 99 96 93 91 89 86 80 71 64